User: anonymous   Login
Location: Équennes
(49.7375°N, 1.9622°E)
Time: 22:38:19
(UTC+00:00)
Language:

IRIDIUM 103 - Orbit

View from above orbital plane
View from above orbital plane
View from above satellite
View from above satellite

Ground track
Ground track

The orbit data is extracted from the following two-line orbital elements,

1 41918U 17003B   24151.23405254  .00000389  00000-0  13198-3 0  9997
2 41918  86.3991  40.9933 0001977  79.8813 280.2605 14.34220242386025
Epoch (UTC): 30 May 2024 05:37:02
Eccentricity: 0.0001977
inclination: 86.3991°
perigee height: 776 km
apogee height: 779 km
right ascension of ascending node: 40.9933°
argument of perigee: 79.8813°
revolutions per day: 14.34220242
mean anomaly at epoch: 280.2605°
orbit number at epoch: 38602

The dashed part of the orbit path shows where the satellite is in the earth's shadow,  

DLR